Time,TemperatureF,DewpointF,PressureIn,WindDirection,WindDirectionDegrees,WindSpeedMPH,WindSpeedGustMPH,Humidity,HourlyPrecipIn,Conditions,Clouds,dailyrainin,SoftwareType,DateUTC
2013-03-13 00:00:00,33.6,25.2,29.98,SW,222,4.0,4.0,71,0.00,RA,,0.00,WeatherDisplay:10.37,2013-03-13 04:00:00,
2013-03-13 00:01:00,33.5,25.1,29.98,SW,222,3.5,3.5,71,0.00,RA,,0.00,WeatherDisplay:10.37,2013-03-13 04:01:00,
2013-03-13 00:06:00,33.2,25.1,29.98,SW,225,3.5,3.5,72,0.00,RA,,0.00,WeatherDisplay:10.37,2013-03-13 04:06:00,
2013-03-13 00:11:00,33.0,25.0,29.99,SW,223,4.0,4.0,72,0.00,CLR,,0.00,WeatherDisplay:10.37,2013-03-13 04:11:00,
2013-03-13 00:17:00,32.8,25.1,29.99,SW,223,5.0,5.0,73,0.00,CLR,,0.00,WeatherDisplay:10.37,2013-03-13 04:17:00,
2013-03-13 00:22:00,32.9,24.9,29.98,SW,217,5.0,5.0,72,0.00,CLR,,0.00,WeatherDisplay:10.37,2013-03-13 04:22:00,
2013-03-13 00:27:00,32.9,24.9,29.98,SW,227,6.0,6.0,72,0.00,CLR,,0.00,WeatherDisplay:10.37,2013-03-13 04:27:00,
2013-03-13 00:32:00,32.9,25.2,29.99,SW,223,5.0,5.0,73,0.00,CLR,,0.00,WeatherDisplay:10.37,2013-03-13 04:32:00,
2013-03-13 00:37:00,32.8,25.1,29.98,SW,229,5.0,5.0,73,0.00,CLR,,0.00,WeatherDisplay:10.37,2013-03-13 04:37:00,
2013-03-13 00:42:00,32.8,25.1,29.98,SW,221,7.0,7.0,73,0.00,CLR,,0.00,WeatherDisplay:10.37,2013-03-13 04:42:00,
2013-03-13 00:47:00,32.8,25.1,29.98,SW,223,7.0,7.0,73,0.00,CLR,,0.00,WeatherDisplay:10.37,2013-03-13 04:47:00,
2013-03-13 00:52:00,32.8,25.1,29.98,SW,220,6.0,6.0,73,0.00,CLR,,0.00,WeatherDisplay:10.37,2013-03-13 04:52:00,
2013-03-13 00:57:00,32.8,25.4,29.98,SW,221,5.8,5.8,74,0.00,CLR,,0.00,WeatherDisplay:10.37,2013-03-13 04:57:00,
2013-03-13 01:02:00,32.8,25.4,29.97,SW,221,6.0,6.0,74,0.00,CLR,,0.00,WeatherDisplay:10.37,2013-03-13 05:02:00,
2013-03-13 01:07:00,33.0,25.6,29.97,SW,218,5.0,5.0,74,0.00,CLR,,0.00,WeatherDisplay:10.37,2013-03-13 05:07:00,
2013-03-13 01:12:00,33.4,25.7,29.97,SW,219,6.0,6.0,73,0.00,CLR,,0.00,WeatherDisplay:10.37,2013-03-13 05:12:00,
2013-03-13 01:17:00,33.4,25.7,29.97,SW,218,6.0,6.0,73,0.00,CLR,,0.00,WeatherDisplay:10.37,2013-03-13 05:17:00,
2013-03-13 01:22:00,33.5,25.8,29.97,SW,219,4.0,4.0,73,0.00,CLR,,0.00,WeatherDisplay:10.37,2013-03-13 05:22:00,
2013-03-13 01:27:00,33.4,25.7,29.97,SW,227,5.0,5.0,73,0.00,CLR,,0.00,WeatherDisplay:10.37,2013-03-13 05:27:00,
2013-03-13 01:32:00,33.2,25.8,29.97,SW,215,6.0,6.0,74,0.00,CLR,,0.00,WeatherDisplay:10.37,2013-03-13 05:32:00,
2013-03-13 01:37:00,33.3,25.9,29.96,SW,218,5.0,5.0,74,0.00,CLR,,0.00,WeatherDisplay:10.37,2013-03-13 05:37:00,
2013-03-13 01:42:00,33.2,25.8,29.96,SW,217,5.0,5.0,74,0.00,CLR,,0.00,WeatherDisplay:10.37,2013-03-13 05:42:00,
2013-03-13 01:47:00,33.3,25.9,29.96,SW,215,5.0,5.0,74,0.00,CLR,,0.00,WeatherDisplay:10.37,2013-03-13 05:47:00,
2013-03-13 01:52:00,33.3,25.9,29.97,SW,223,7.0,7.0,74,0.00,CLR,,0.00,WeatherDisplay:10.37,2013-03-13 05:52:00,
2013-03-13 01:57:00,33.2,25.5,29.97,SW,225,7.0,7.0,73,0.00,CLR,,0.00,WeatherDisplay:10.37,2013-03-13 05:57:00,
2013-03-13 02:02:00,33.3,25.6,29.97,SW,218,7.0,7.0,73,0.00,CLR,,0.00,WeatherDisplay:10.37,2013-03-13 06:02:00,
2013-03-13 02:07:00,33.4,25.7,29.96,SW,218,8.1,8.1,73,0.00,CLR,,0.00,WeatherDisplay:10.37,2013-03-13 06:07:00,
2013-03-13 02:12:00,33.4,25.7,29.97,SW,223,7.0,7.0,73,0.00,CLR,,0.00,WeatherDisplay:10.37,2013-03-13 06:12:00,
2013-03-13 02:17:00,33.3,25.6,29.96,SW,223,8.0,8.0,73,0.00,CLR,,0.00,WeatherDisplay:10.37,2013-03-13 06:17:00,
2013-03-13 02:22:00,33.4,26.0,29.96,SW,232,18.4,18.4,74,0.00,CLR,,0.00,WeatherDisplay:10.37,2013-03-13 06:22:00,
2013-03-13 02:28:00,33.4,26.0,29.96,WSW,237,14.0,14.0,74,0.00,CLR,,0.00,WeatherDisplay:10.37,2013-03-13 06:28:00,
2013-03-13 02:33:00,33.1,26.0,29.96,WSW,245,12.7,12.7,75,0.00,CLR,,0.00,WeatherDisplay:10.37,2013-03-13 06:33:00,
2013-03-13 02:38:00,33.0,26.3,29.96,WSW,258,11.5,11.5,76,0.00,CLR,,0.00,WeatherDisplay:10.37,2013-03-13 06:38:00,
2013-03-13 02:43:00,33.0,26.3,29.96,SW,230,12.7,12.7,76,0.00,CLR,,0.00,WeatherDisplay:10.37,2013-03-13 06:43:00,
2013-03-13 02:48:00,33.0,26.6,29.96,WSW,248,15.0,15.0,77,0.00,CLR,,0.00,WeatherDisplay:10.37,2013-03-13 06:48:00,
2013-03-13 02:53:00,33.1,26.7,29.96,WSW,245,11.5,11.5,77,0.00,CLR,,0.00,WeatherDisplay:10.37,2013-03-13 06:53:00,
2013-03-13 02:58:00,33.2,26.8,29.96,WSW,256,11.5,11.5,77,0.00,CLR,,0.00,WeatherDisplay:10.37,2013-03-13 06:58:00,
2013-03-13 03:03:00,33.2,27.1,29.96,WSW,238,9.2,9.2,78,0.00,CLR,,0.00,WeatherDisplay:10.37,2013-03-13 07:03:00,
2013-03-13 03:08:00,33.2,27.1,29.95,WSW,238,9.2,9.2,78,0.00,CLR,,0.00,WeatherDisplay:10.37,2013-03-13 07:08:00,
2013-03-13 03:13:00,33.0,26.9,29.95,SW,229,8.1,8.1,78,0.00,CLR,,0.00,WeatherDisplay:10.37,2013-03-13 07:13:00,
2013-03-13 03:18:00,33.0,26.9,29.95,SW,227,9.0,9.0,78,0.00,CLR,,0.00,WeatherDisplay:10.37,2013-03-13 07:18:00,
2013-03-13 03:23:00,33.0,26.9,29.95,WSW,244,8.1,8.1,78,0.00,CLR,,0.00,WeatherDisplay:10.37,2013-03-13 07:23:00,
2013-03-13 03:28:00,32.9,27.1,29.95,SW,217,10.0,10.0,79,0.00,CLR,,0.00,WeatherDisplay:10.37,2013-03-13 07:28:00,
2013-03-13 03:33:00,32.9,27.1,29.94,SSW,211,7.0,7.0,79,0.00,CLR,,0.00,WeatherDisplay:10.37,2013-03-13 07:33:00,
2013-03-13 03:38:00,32.8,27.0,29.94,SW,230,8.1,8.1,79,0.00,CLR,,0.00,WeatherDisplay:10.37,2013-03-13 07:38:00,
2013-03-13 03:43:00,32.8,27.0,29.94,SW,221,9.0,9.0,79,0.00,CLR,,0.00,WeatherDisplay:10.37,2013-03-13 07:43:00,
2013-03-13 03:48:00,32.7,26.9,29.94,SW,234,10.4,10.4,79,0.00,CLR,,0.00,WeatherDisplay:10.37,2013-03-13 07:48:00,
2013-03-13 03:53:00,32.6,27.1,29.94,SW,231,9.2,9.2,80,0.00,CLR,,0.00,WeatherDisplay:10.37,2013-03-13 07:53:00,
2013-03-13 03:58:00,32.6,27.1,29.94,SW,234,10.0,10.0,80,0.00,CLR,,0.00,WeatherDisplay:10.37,2013-03-13 07:58:00,
2013-03-13 04:03:00,32.5,27.0,29.94,SW,234,12.0,12.0,80,0.00,CLR,,0.00,WeatherDisplay:10.37,2013-03-13 08:03:00,
2013-03-13 04:08:00,32.4,26.9,29.93,SW,222,10.4,10.4,80,0.00,CLR,,0.00,WeatherDisplay:10.37,2013-03-13 08:08:00,
2013-03-13 04:13:00,32.3,26.8,29.93,SW,229,9.2,9.2,80,0.00,CLR,,0.00,WeatherDisplay:10.37,2013-03-13 08:13:00,
2013-03-13 04:18:00,32.0,26.5,29.93,SW,232,9.0,9.0,80,0.00,CLR,,0.00,WeatherDisplay:10.37,2013-03-13 08:18:00,
2013-03-13 04:23:00,31.9,26.4,29.93,SW,232,10.0,10.0,80,0.00,CLR,,0.00,WeatherDisplay:10.37,2013-03-13 08:23:00,
2013-03-13 04:28:00,31.7,26.2,29.93,SW,219,9.2,9.2,80,0.00,CLR,,0.00,WeatherDisplay:10.37,2013-03-13 08:28:00,
2013-03-13 04:33:00,31.6,26.4,29.93,SW,227,9.2,9.2,81,0.00,CLR,,0.00,WeatherDisplay:10.37,2013-03-13 08:33:00,
2013-03-13 04:38:00,31.3,26.1,29.93,SW,219,5.0,5.0,81,0.00,CLR,,0.00,WeatherDisplay:10.37,2013-03-13 08:38:00,
2013-03-13 04:43:00,31.1,26.0,29.93,SW,227,8.1,8.1,81,0.00,CLR,,0.00,WeatherDisplay:10.37,2013-03-13 08:43:00,
2013-03-13 04:48:00,30.9,25.8,29.93,SW,226,6.0,8.0,81,0.00,CLR,CLR,0.00,WeatherDisplay:10.37,2013-03-13 08:48:00,
2013-03-13 04:53:00,30.8,25.7,29.93,SW,227,8.1,8.1,81,0.00,CLR,,0.00,WeatherDisplay:10.37,2013-03-13 08:53:00,
2013-03-13 04:58:00,30.8,26.0,29.93,SW,233,8.0,8.0,82,0.00,CLR,,0.00,WeatherDisplay:10.37,2013-03-13 08:58:00,
2013-03-13 05:03:00,31.0,26.1,29.93,SW,227,5.0,5.0,82,0.00,CLR,,0.00,WeatherDisplay:10.37,2013-03-13 09:03:00,
2013-03-13 05:08:00,31.0,26.1,29.93,SSW,210,7.0,7.0,82,0.00,CLR,,0.00,WeatherDisplay:10.37,2013-03-13 09:08:00,
2013-03-13 05:13:00,31.0,26.1,29.93,SW,233,12.0,12.0,82,0.00,CLR,,0.00,WeatherDisplay:10.37,2013-03-13 09:13:00,
2013-03-13 05:18:00,30.9,26.1,29.93,SW,232,10.4,10.4,82,0.00,CLR,,0.00,WeatherDisplay:10.37,2013-03-13 09:18:00,
2013-03-13 05:23:00,30.9,26.1,29.93,SW,221,9.2,9.2,82,0.00,CLR,,0.00,WeatherDisplay:10.37,2013-03-13 09:23:00,
2013-03-13 05:28:00,31.0,26.1,29.93,SW,234,10.4,10.4,82,0.00,CLR,,0.00,WeatherDisplay:10.37,2013-03-13 09:28:00,
2013-03-13 05:33:00,31.0,26.1,29.93,WSW,249,11.0,11.0,82,0.00,CLR,,0.00,WeatherDisplay:10.37,2013-03-13 09:33:00,
2013-03-13 05:39:00,31.0,26.1,29.93,SW,229,9.2,9.2,82,0.00,CLR,,0.00,WeatherDisplay:10.37,2013-03-13 09:39:00,
2013-03-13 05:44:00,31.0,26.1,29.93,SW,232,8.1,8.1,82,0.00,CLR,,0.00,WeatherDisplay:10.37,2013-03-13 09:44:00,
2013-03-13 05:49:00,30.9,26.1,29.93,SW,215,7.0,7.0,82,0.00,CLR,,0.00,WeatherDisplay:10.37,2013-03-13 09:49:00,
2013-03-13 05:54:00,30.8,26.2,29.93,SW,233,6.0,6.0,83,0.00,CLR,,0.00,WeatherDisplay:10.37,2013-03-13 09:54:00,
2013-03-13 05:59:00,30.9,26.3,29.92,SSW,196,7.0,7.0,83,0.00,CLR,,0.00,WeatherDisplay:10.37,2013-03-13 09:59:00,
2013-03-13 06:04:00,30.9,26.3,29.92,SSW,204,4.0,4.0,83,0.00,CLR,,0.00,WeatherDisplay:10.37,2013-03-13 10:04:00,
2013-03-13 06:09:00,30.9,26.3,29.92,SSW,207,7.0,7.0,83,0.00,CLR,,0.00,WeatherDisplay:10.37,2013-03-13 10:09:00,
2013-03-13 06:14:00,30.9,26.3,29.92,SW,221,6.0,6.0,83,0.00,CLR,,0.00,WeatherDisplay:10.37,2013-03-13 10:14:00,
2013-03-13 06:19:00,31.0,26.4,29.93,SW,227,7.0,7.0,83,0.00,CLR,,0.00,WeatherDisplay:10.37,2013-03-13 10:19:00,
2013-03-13 06:24:00,31.1,26.5,29.93,SW,223,6.0,6.0,83,0.00,CLR,,0.00,WeatherDisplay:10.37,2013-03-13 10:24:00,
2013-03-13 06:29:00,31.1,26.5,29.93,SW,231,5.8,5.8,83,0.00,CLR,,0.00,WeatherDisplay:10.37,2013-03-13 10:29:00,
2013-03-13 06:34:00,31.1,26.5,29.93,SW,225,5.0,5.0,83,0.00,CLR,,0.00,WeatherDisplay:10.37,2013-03-13 10:34:00,
2013-03-13 06:39:00,31.1,26.5,29.93,SW,223,7.0,7.0,83,0.00,CLR,,0.00,WeatherDisplay:10.37,2013-03-13 10:39:00,
2013-03-13 06:44:00,31.1,26.5,29.93,SW,230,6.0,6.0,83,0.00,CLR,,0.00,WeatherDisplay:10.37,2013-03-13 10:44:00,
2013-03-13 06:49:00,31.2,26.6,29.93,SW,226,7.0,7.0,83,0.00,CLR,,0.00,WeatherDisplay:10.37,2013-03-13 10:49:00,
2013-03-13 06:54:00,31.2,26.6,29.93,SW,224,6.9,6.9,83,0.00,CLR,,0.00,WeatherDisplay:10.37,2013-03-13 10:54:00,
2013-03-13 06:59:00,31.3,26.7,29.93,SW,216,9.2,9.2,83,0.00,CLR,,0.00,WeatherDisplay:10.37,2013-03-13 10:59:00,
2013-03-13 07:04:00,31.4,26.8,29.93,WSW,242,9.0,9.0,83,0.00,CLR,,0.00,WeatherDisplay:10.37,2013-03-13 11:04:00,
2013-03-13 07:09:00,31.4,26.8,29.93,SW,225,13.0,13.0,83,0.00,CLR,,0.00,WeatherDisplay:10.37,2013-03-13 11:09:00,
2013-03-13 07:14:00,31.5,26.9,29.93,SW,230,14.0,14.0,83,0.00,CLR,,0.00,WeatherDisplay:10.37,2013-03-13 11:14:00,
2013-03-13 07:19:00,31.6,27.0,29.92,West,259,16.0,16.0,83,0.00,CLR,,0.00,WeatherDisplay:10.37,2013-03-13 11:19:00,
2013-03-13 07:24:00,31.7,27.1,29.93,West,269,11.5,11.5,83,0.00,CLR,,0.00,WeatherDisplay:10.37,2013-03-13 11:24:00,
2013-03-13 07:29:00,31.8,27.2,29.92,West,276,17.3,17.3,83,0.00,CLR,,0.00,WeatherDisplay:10.37,2013-03-13 11:29:00,
2013-03-13 07:34:00,31.8,26.9,29.93,WSW,252,17.3,17.3,82,0.00,CLR,,0.00,WeatherDisplay:10.37,2013-03-13 11:34:00,
2013-03-13 07:39:00,31.8,26.9,29.92,WSW,250,17.3,17.3,82,0.00,CLR,,0.00,WeatherDisplay:10.37,2013-03-13 11:39:00,
2013-03-13 07:44:00,31.8,26.9,29.93,WSW,249,15.0,15.0,82,0.00,CLR,,0.00,WeatherDisplay:10.37,2013-03-13 11:44:00,
2013-03-13 07:49:00,31.8,26.6,29.93,West,264,16.0,16.0,81,0.00,CLR,,0.00,WeatherDisplay:10.37,2013-03-13 11:49:00,
2013-03-13 07:54:00,31.8,26.6,29.93,WSW,252,19.6,19.6,81,0.00,CLR,,0.00,WeatherDisplay:10.37,2013-03-13 11:54:00,
2013-03-13 07:59:00,31.9,26.7,29.93,West,261,19.0,19.0,81,0.00,CLR,,0.00,WeatherDisplay:10.37,2013-03-13 11:59:00,
2013-03-13 08:04:00,31.8,26.3,29.93,SW,225,16.1,16.1,80,0.00,CLR,,0.00,WeatherDisplay:10.37,2013-03-13 12:04:00,
2013-03-13 08:09:00,31.6,25.8,29.93,SW,230,15.0,15.0,79,0.00,CLR,,0.00,WeatherDisplay:10.37,2013-03-13 12:09:00,
2013-03-13 08:14:00,31.6,25.8,29.93,WSW,257,14.0,14.0,79,0.00,CLR,,0.00,WeatherDisplay:10.37,2013-03-13 12:14:00,
2013-03-13 08:19:00,31.6,25.8,29.94,SW,226,14.0,14.0,79,0.00,CLR,,0.00,WeatherDisplay:10.37,2013-03-13 12:19:00,
2013-03-13 08:24:00,31.6,25.8,29.94,WSW,249,12.0,12.0,79,0.00,CLR,,0.00,WeatherDisplay:10.37,2013-03-13 12:24:00,
2013-03-13 08:29:00,31.7,25.9,29.94,SW,232,12.0,12.0,79,0.00,CLR,,0.00,WeatherDisplay:10.37,2013-03-13 12:29:00,
2013-03-13 08:34:00,31.7,25.6,29.94,WSW,238,13.0,13.0,78,0.00,CLR,,0.00,WeatherDisplay:10.37,2013-03-13 12:34:00,
2013-03-13 08:39:00,31.7,25.6,29.94,West,277,14.0,14.0,78,0.00,CLR,,0.00,WeatherDisplay:10.37,2013-03-13 12:39:00,
2013-03-13 08:44:00,31.8,25.7,29.95,SW,226,15.0,15.0,78,0.00,CLR,,0.00,WeatherDisplay:10.37,2013-03-13 12:44:00,
2013-03-13 08:49:00,31.9,25.8,29.95,WSW,254,15.0,15.0,78,0.00,CLR,,0.00,WeatherDisplay:10.37,2013-03-13 12:49:00,
2013-03-13 08:54:00,31.9,25.5,29.95,WSW,257,17.0,17.0,77,0.00,CLR,,0.00,WeatherDisplay:10.37,2013-03-13 12:54:00,
2013-03-13 08:59:00,31.9,25.5,29.95,WNW,286,13.0,13.0,77,0.00,CLR,,0.00,WeatherDisplay:10.37,2013-03-13 12:59:00,
2013-03-13 09:04:00,32.0,25.6,29.95,West,264,10.4,10.4,77,0.00,CLR,,0.00,WeatherDisplay:10.37,2013-03-13 13:04:00,
2013-03-13 09:09:00,32.0,25.3,29.95,SW,228,12.0,12.0,76,0.00,CLR,,0.00,WeatherDisplay:10.37,2013-03-13 13:09:00,
2013-03-13 09:14:00,32.0,25.3,29.95,WSW,242,13.0,13.0,76,0.00,CLR,,0.00,WeatherDisplay:10.37,2013-03-13 13:14:00,
2013-03-13 09:19:00,32.0,25.3,29.95,West,265,9.0,9.0,76,0.00,CLR,,0.00,WeatherDisplay:10.37,2013-03-13 13:19:00,
2013-03-13 09:24:00,32.0,25.3,29.95,West,259,11.0,11.0,76,0.00,CLR,,0.00,WeatherDisplay:10.37,2013-03-13 13:24:00,
2013-03-13 09:29:00,32.1,25.4,29.95,WSW,253,10.4,10.4,76,0.00,CLR,,0.00,WeatherDisplay:10.37,2013-03-13 13:29:00,
2013-03-13 09:34:00,32.1,25.4,29.95,West,270,11.5,11.5,76,0.00,CLR,,0.00,WeatherDisplay:10.37,2013-03-13 13:34:00,
2013-03-13 09:39:00,32.2,25.5,29.96,West,264,11.5,11.5,76,0.00,CLR,,0.00,WeatherDisplay:10.37,2013-03-13 13:39:00,
2013-03-13 09:44:00,32.3,25.3,29.95,West,261,9.0,9.0,75,0.00,CLR,,0.00,WeatherDisplay:10.37,2013-03-13 13:44:00,
2013-03-13 09:49:00,32.3,25.3,29.96,West,269,10.4,10.4,75,0.00,CLR,,0.00,WeatherDisplay:10.37,2013-03-13 13:49:00,
2013-03-13 09:54:00,32.1,25.1,29.96,SW,223,16.1,16.1,75,0.00,CLR,,0.00,WeatherDisplay:10.37,2013-03-13 13:54:00,
2013-03-13 09:59:00,31.9,24.9,29.96,WSW,256,11.5,11.5,75,0.00,CLR,,0.00,WeatherDisplay:10.37,2013-03-13 13:59:00,
2013-03-13 10:04:00,31.7,24.7,29.96,West,260,19.6,19.6,75,0.00,CLR,,0.00,WeatherDisplay:10.37,2013-03-13 14:04:00,
2013-03-13 10:09:00,31.7,25.0,29.96,WSW,244,16.1,16.1,76,0.00,CLR,,0.00,WeatherDisplay:10.37,2013-03-13 14:09:00,
2013-03-13 10:14:00,31.6,24.9,29.96,West,277,16.1,16.1,76,0.00,CLR,,0.00,WeatherDisplay:10.37,2013-03-13 14:14:00,
2013-03-13 10:19:00,31.3,24.9,29.96,WSW,257,12.0,12.0,77,0.00,CLR,,0.00,WeatherDisplay:10.37,2013-03-13 14:19:00,
2013-03-13 10:24:00,30.8,24.7,29.96,WSW,255,15.0,15.0,78,0.00,CLR,,0.00,WeatherDisplay:10.37,2013-03-13 14:24:00,
2013-03-13 10:29:00,30.5,24.8,29.97,West,275,9.2,9.2,79,0.00,CLR,,0.00,WeatherDisplay:10.37,2013-03-13 14:29:00,
2013-03-13 10:34:00,30.1,24.7,29.97,WSW,256,11.5,11.5,80,0.00,CLR,,0.00,WeatherDisplay:10.37,2013-03-13 14:34:00,
2013-03-13 10:39:00,29.9,24.5,29.97,West,261,7.0,7.0,80,0.00,CLR,,0.00,WeatherDisplay:10.37,2013-03-13 14:39:00,
2013-03-13 10:44:00,29.7,24.6,29.97,West,273,8.1,8.1,81,0.00,CLR,,0.00,WeatherDisplay:10.37,2013-03-13 14:44:00,
2013-03-13 10:49:00,29.6,24.5,29.97,WSW,256,6.0,6.0,81,0.00,CLR,,0.00,WeatherDisplay:10.37,2013-03-13 14:49:00,
2013-03-13 10:54:00,29.9,24.8,29.97,West,269,4.6,4.6,81,0.00,CLR,,0.00,WeatherDisplay:10.37,2013-03-13 14:54:00,
2013-03-13 10:59:00,30.2,25.4,29.97,West,277,6.0,6.0,82,0.00,CLR,,0.00,WeatherDisplay:10.37,2013-03-13 14:59:00,
2013-03-13 11:04:00,30.8,26.0,29.97,WSW,246,6.0,6.0,82,0.00,CLR,,0.00,WeatherDisplay:10.37,2013-03-13 15:04:00,
2013-03-13 11:09:00,31.0,26.1,29.96,WSW,256,8.1,8.1,82,0.00,CLR,,0.00,WeatherDisplay:10.37,2013-03-13 15:09:00,
2013-03-13 11:14:00,31.0,26.1,29.96,West,260,9.2,9.2,82,0.00,CLR,,0.00,WeatherDisplay:10.37,2013-03-13 15:14:00,
2013-03-13 11:19:00,31.0,26.1,29.97,WNW,290,6.9,6.9,82,0.00,CLR,,0.00,WeatherDisplay:10.37,2013-03-13 15:19:00,
2013-03-13 11:24:00,30.3,25.2,29.97,NW,305,9.0,9.0,81,0.00,CLR,,0.00,WeatherDisplay:10.37,2013-03-13 15:24:00,
2013-03-13 11:29:00,29.5,24.4,29.97,West,271,9.2,9.2,81,0.00,CLR,,0.00,WeatherDisplay:10.37,2013-03-13 15:29:00,
2013-03-13 11:34:00,29.2,24.1,29.97,West,259,14.0,14.0,81,0.00,CLR,,0.00,WeatherDisplay:10.37,2013-03-13 15:34:00,
2013-03-13 11:39:00,29.1,24.3,29.97,West,263,10.0,10.0,82,0.00,CLR,,0.00,WeatherDisplay:10.37,2013-03-13 15:39:00,
2013-03-13 11:44:00,29.1,24.3,29.97,WSW,256,11.5,11.5,82,0.00,CLR,,0.00,WeatherDisplay:10.37,2013-03-13 15:44:00,
2013-03-13 11:49:00,29.2,24.4,29.97,WSW,252,11.5,11.5,82,0.00,CLR,,0.00,WeatherDisplay:10.37,2013-03-13 15:49:00,
2013-03-13 11:54:00,29.5,25.0,29.97,West,259,12.0,12.0,83,0.00,CLR,,0.00,WeatherDisplay:10.37,2013-03-13 15:54:00,
2013-03-13 11:59:00,29.7,25.2,29.97,West,261,13.0,13.0,83,0.00,CLR,,0.00,WeatherDisplay:10.37,2013-03-13 15:59:00,
2013-03-13 12:04:00,29.6,25.1,29.98,WSW,255,17.3,17.3,83,0.00,CLR,,0.00,WeatherDisplay:10.37,2013-03-13 16:04:00,
2013-03-13 12:09:00,29.9,25.4,29.97,WNW,285,10.4,10.4,83,0.00,CLR,,0.00,WeatherDisplay:10.37,2013-03-13 16:09:00,
2013-03-13 12:14:00,29.9,25.4,29.98,West,259,14.0,14.0,83,0.00,CLR,,0.00,WeatherDisplay:10.37,2013-03-13 16:14:00,
2013-03-13 12:19:00,30.2,25.7,29.97,West,259,17.0,17.0,83,0.00,CLR,,0.00,WeatherDisplay:10.37,2013-03-13 16:19:00,
2013-03-13 12:24:00,30.9,26.3,29.97,WSW,256,13.0,13.0,83,0.00,CLR,,0.00,WeatherDisplay:10.37,2013-03-13 16:24:00,
2013-03-13 12:29:00,31.0,26.1,29.97,WNW,284,13.0,13.0,82,0.00,CLR,,0.00,WeatherDisplay:10.37,2013-03-13 16:29:00,
2013-03-13 12:34:00,30.5,25.7,29.98,WNW,302,9.0,9.0,82,0.00,CLR,,0.00,WeatherDisplay:10.37,2013-03-13 16:34:00,
2013-03-13 12:39:00,30.0,24.9,29.98,NW,309,15.0,15.0,81,0.00,CLR,,0.00,WeatherDisplay:10.37,2013-03-13 16:39:00,
2013-03-13 12:44:00,30.5,25.4,29.98,WNW,302,8.1,8.1,81,0.00,CLR,,0.00,WeatherDisplay:10.37,2013-03-13 16:44:00,
2013-03-13 12:49:00,30.8,25.4,29.98,NW,309,8.1,8.1,80,0.00,CLR,,0.00,WeatherDisplay:10.37,2013-03-13 16:49:00,
2013-03-13 12:54:00,32.0,26.5,29.98,SSW,205,12.0,12.0,80,0.01,RA,,0.01,WeatherDisplay:10.37,2013-03-13 16:54:00,
2013-03-13 12:59:00,33.0,27.2,29.98,West,264,12.0,12.0,79,0.01,RA,,0.01,WeatherDisplay:10.37,2013-03-13 16:59:00,
2013-03-13 13:04:00,33.4,27.0,29.98,West,265,12.0,12.0,77,0.02,RA,,0.02,WeatherDisplay:10.37,2013-03-13 17:04:00,
2013-03-13 13:09:00,33.2,25.8,29.98,WSW,243,18.4,18.4,74,0.02,RA,,0.02,WeatherDisplay:10.37,2013-03-13 17:09:00,
2013-03-13 13:14:00,33.1,25.1,29.98,WNW,298,19.6,19.6,72,0.02,,,0.02,WeatherDisplay:10.37,2013-03-13 17:14:00,
2013-03-13 13:19:00,32.6,23.6,29.98,WSW,257,19.0,19.0,69,0.03,RA,,0.03,WeatherDisplay:10.37,2013-03-13 17:19:00,
2013-03-13 13:24:00,32.5,22.8,29.98,West,272,20.0,20.0,67,0.03,RA,,0.03,WeatherDisplay:10.37,2013-03-13 17:24:00,
2013-03-13 13:29:00,32.8,22.0,29.98,West,266,20.0,20.0,64,0.03,CLR,,0.03,WeatherDisplay:10.37,2013-03-13 17:29:00,
2013-03-13 13:34:00,33.4,21.8,29.98,West,265,18.0,18.0,62,0.03,CLR,,0.03,WeatherDisplay:10.37,2013-03-13 17:34:00,
2013-03-13 13:39:00,33.5,21.5,29.98,WNW,292,22.0,22.0,61,0.03,CLR,,0.03,WeatherDisplay:10.37,2013-03-13 17:39:00,
2013-03-13 13:44:00,33.8,22.1,29.99,NW,308,17.3,17.3,62,0.03,CLR,,0.03,WeatherDisplay:10.37,2013-03-13 17:44:00,
2013-03-13 13:49:00,33.5,21.1,29.99,West,261,31.1,31.1,60,0.04,RA,,0.04,WeatherDisplay:10.37,2013-03-13 17:49:00,
2013-03-13 13:54:00,33.5,21.1,29.98,West,265,23.0,23.0,60,0.03,RA,,0.04,WeatherDisplay:10.37,2013-03-13 17:54:00,
2013-03-13 13:59:00,33.0,20.2,29.99,WSW,254,22.0,22.0,59,0.03,,,0.04,WeatherDisplay:10.37,2013-03-13 17:59:00,
2013-03-13 14:04:00,32.8,20.0,29.99,West,262,22.0,22.0,59,0.02,CLR,,0.04,WeatherDisplay:10.37,2013-03-13 18:04:00,
2013-03-13 14:09:00,32.5,19.7,29.99,WSW,257,19.6,19.6,59,0.02,CLR,,0.04,WeatherDisplay:10.37,2013-03-13 18:09:00,
2013-03-13 14:14:00,32.7,20.7,29.99,WSW,248,27.0,27.0,61,0.02,CLR,,0.04,WeatherDisplay:10.37,2013-03-13 18:14:00,
2013-03-13 14:19:00,33.0,20.6,29.99,WSW,257,26.5,26.5,60,0.01,CLR,,0.04,WeatherDisplay:10.37,2013-03-13 18:19:00,
2013-03-13 14:24:00,34.0,21.2,29.99,West,272,19.6,19.6,59,0.01,CLR,,0.04,WeatherDisplay:10.37,2013-03-13 18:24:00,
2013-03-13 14:29:00,34.4,20.3,29.99,WSW,239,19.0,19.0,56,0.01,CLR,,0.04,WeatherDisplay:10.37,2013-03-13 18:29:00,
2013-03-13 14:34:00,34.9,21.2,29.98,WNW,284,22.0,22.0,57,0.01,CLR,,0.04,WeatherDisplay:10.37,2013-03-13 18:34:00,
2013-03-13 14:39:00,35.9,22.5,29.99,SSW,210,20.0,20.0,58,0.01,CLR,,0.04,WeatherDisplay:10.37,2013-03-13 18:39:00,
2013-03-13 14:44:00,35.4,22.1,29.99,WSW,252,26.0,26.0,58,0.01,CLR,,0.04,WeatherDisplay:10.37,2013-03-13 18:44:00,
2013-03-13 14:49:00,34.3,20.6,29.98,WSW,257,27.6,27.6,57,0.00,CLR,,0.04,WeatherDisplay:10.37,2013-03-13 18:49:00,
2013-03-13 14:54:00,34.5,21.6,29.99,West,269,24.2,24.2,59,0.00,CLR,,0.04,WeatherDisplay:10.37,2013-03-13 18:54:00,
2013-03-13 14:59:00,35.0,21.7,29.98,West,260,22.0,22.0,58,0.01,RA,,0.05,WeatherDisplay:10.37,2013-03-13 18:59:00,
2013-03-13 15:04:00,34.0,20.3,29.99,West,265,28.8,28.8,57,0.01,RA,,0.05,WeatherDisplay:10.37,2013-03-13 19:04:00,
2013-03-13 15:09:00,32.5,20.9,30.00,WNW,287,13.0,13.0,62,0.01,CLR,,0.05,WeatherDisplay:10.37,2013-03-13 19:09:00,
2013-03-13 15:14:00,31.9,22.2,30.00,NW,318,11.0,11.0,67,0.01,CLR,,0.05,WeatherDisplay:10.37,2013-03-13 19:14:00,
2013-03-13 15:19:00,31.7,22.0,30.00,SW,234,13.0,13.0,67,0.01,CLR,,0.05,WeatherDisplay:10.37,2013-03-13 19:19:00,
2013-03-13 15:24:00,31.8,21.0,30.00,NW,319,15.0,15.0,64,0.01,CLR,,0.05,WeatherDisplay:10.37,2013-03-13 19:24:00,
2013-03-13 15:29:00,32.0,21.2,30.00,WNW,294,11.5,11.5,64,0.01,CLR,,0.05,WeatherDisplay:10.37,2013-03-13 19:29:00,
2013-03-13 15:34:00,33.8,24.4,30.00,West,261,23.0,23.0,68,0.01,CLR,,0.05,WeatherDisplay:10.37,2013-03-13 19:34:00,
2013-03-13 15:39:00,34.7,24.9,30.00,WSW,254,18.4,18.4,67,0.01,CLR,,0.05,WeatherDisplay:10.37,2013-03-13 19:39:00,
2013-03-13 15:44:00,34.4,23.5,30.00,WNW,295,13.0,13.0,64,0.01,CLR,,0.05,WeatherDisplay:10.37,2013-03-13 19:44:00,
2013-03-13 15:49:00,33.0,20.6,30.00,WNW,297,12.0,12.0,60,0.01,CLR,,0.05,WeatherDisplay:10.37,2013-03-13 19:49:00,
2013-03-13 15:54:00,32.8,21.2,30.00,WNW,288,16.1,16.1,62,0.01,CLR,,0.05,WeatherDisplay:10.37,2013-03-13 19:54:00,
2013-03-13 15:59:00,32.3,19.6,30.00,NW,318,7.0,7.0,59,0.00,CLR,,0.05,WeatherDisplay:10.37,2013-03-13 19:59:00,
2013-03-13 16:04:00,32.1,19.8,30.00,WNW,302,10.4,10.4,60,0.00,CLR,,0.05,WeatherDisplay:10.37,2013-03-13 20:04:00,
2013-03-13 16:09:00,32.0,19.7,30.01,NW,306,13.0,13.0,60,0.00,CLR,,0.05,WeatherDisplay:10.37,2013-03-13 20:09:00,
2013-03-13 16:14:00,31.9,19.6,30.01,NW,304,10.0,10.0,60,0.00,CLR,,0.05,WeatherDisplay:10.37,2013-03-13 20:14:00,
2013-03-13 16:19:00,31.2,20.4,30.02,NW,313,17.3,17.3,64,0.00,CLR,,0.05,WeatherDisplay:10.37,2013-03-13 20:19:00,
2013-03-13 16:24:00,30.0,21.1,30.02,NW,304,7.0,7.0,69,0.00,CLR,,0.05,WeatherDisplay:10.37,2013-03-13 20:24:00,
2013-03-13 16:29:00,29.0,21.4,30.02,North,5,9.0,9.0,73,0.00,CLR,,0.05,WeatherDisplay:10.37,2013-03-13 20:29:00,
2013-03-13 16:34:00,28.8,21.9,30.03,WNW,303,7.0,7.0,75,0.00,CLR,,0.05,WeatherDisplay:10.37,2013-03-13 20:34:00,
2013-03-13 16:39:00,28.8,22.2,30.03,NNW,338,15.0,15.0,76,0.00,CLR,,0.05,WeatherDisplay:10.37,2013-03-13 20:39:00,
2013-03-13 16:44:00,28.9,22.3,30.03,NW,309,14.0,14.0,76,0.00,CLR,,0.05,WeatherDisplay:10.37,2013-03-13 20:44:00,
2013-03-13 16:49:00,29.3,22.4,30.03,West,274,20.0,20.0,75,0.00,CLR,,0.05,WeatherDisplay:10.37,2013-03-13 20:49:00,
2013-03-13 16:54:00,29.7,22.1,30.04,West,281,20.0,20.0,73,0.00,CLR,,0.05,WeatherDisplay:10.37,2013-03-13 20:54:00,
2013-03-13 16:59:00,29.9,21.3,30.03,WSW,243,15.0,15.0,70,0.00,CLR,,0.05,WeatherDisplay:10.37,2013-03-13 20:59:00,
2013-03-13 17:04:00,30.6,21.6,30.03,WNW,300,17.3,17.3,69,0.00,CLR,,0.05,WeatherDisplay:10.37,2013-03-13 21:04:00,
2013-03-13 17:09:00,31.1,22.5,30.03,West,263,24.2,24.2,70,0.00,CLR,,0.05,WeatherDisplay:10.37,2013-03-13 21:09:00,
2013-03-13 17:14:00,31.7,22.3,30.04,West,265,15.0,15.0,68,0.00,CLR,,0.05,WeatherDisplay:10.37,2013-03-13 21:14:00,
2013-03-13 17:19:00,31.5,21.4,30.04,WNW,285,6.9,6.9,66,0.00,CLR,,0.05,WeatherDisplay:10.37,2013-03-13 21:19:00,
2013-03-13 17:24:00,31.2,20.8,30.04,WSW,249,15.0,15.0,65,0.00,CLR,,0.05,WeatherDisplay:10.37,2013-03-13 21:24:00,
2013-03-13 17:29:00,31.4,21.7,30.04,WSW,250,16.1,16.1,67,0.00,CLR,,0.05,WeatherDisplay:10.37,2013-03-13 21:29:00,
2013-03-13 17:34:00,31.3,22.0,30.04,West,259,19.6,19.6,68,0.00,CLR,,0.05,WeatherDisplay:10.37,2013-03-13 21:34:00,
2013-03-13 17:39:00,31.1,21.1,30.05,NNW,329,16.0,16.0,66,0.00,CLR,,0.05,WeatherDisplay:10.37,2013-03-13 21:39:00,
2013-03-13 17:44:00,30.0,20.7,30.05,NNW,335,10.0,10.0,68,0.00,CLR,,0.05,WeatherDisplay:10.37,2013-03-13 21:44:00,
2013-03-13 17:49:00,28.9,20.3,30.06,NNW,348,8.0,8.0,70,0.00,CLR,,0.05,WeatherDisplay:10.37,2013-03-13 21:49:00,
2013-03-13 17:54:00,28.5,20.6,30.06,NW,325,15.0,15.0,72,0.00,CLR,,0.05,WeatherDisplay:10.37,2013-03-13 21:54:00,
2013-03-13 17:59:00,28.3,20.7,30.06,NW,317,13.0,13.0,73,0.00,CLR,,0.05,WeatherDisplay:10.37,2013-03-13 21:59:00,
2013-03-13 18:04:00,28.4,20.5,30.06,WNW,289,14.0,14.0,72,0.00,CLR,,0.05,WeatherDisplay:10.37,2013-03-13 22:04:00,
2013-03-13 18:09:00,28.5,20.9,30.06,WSW,254,17.3,17.3,73,0.00,CLR,,0.05,WeatherDisplay:10.37,2013-03-13 22:09:00,
2013-03-13 18:14:00,28.4,21.2,30.07,West,268,17.3,17.3,74,0.00,CLR,,0.05,WeatherDisplay:10.37,2013-03-13 22:14:00,
2013-03-13 18:19:00,28.3,21.1,30.07,WNW,296,14.0,14.0,74,0.00,CLR,,0.05,WeatherDisplay:10.37,2013-03-13 22:19:00,
2013-03-13 18:24:00,28.3,21.4,30.07,NW,311,16.1,16.1,75,0.00,CLR,,0.05,WeatherDisplay:10.37,2013-03-13 22:24:00,
2013-03-13 18:29:00,28.3,21.4,30.07,WNW,284,18.0,18.0,75,0.00,CLR,,0.05,WeatherDisplay:10.37,2013-03-13 22:29:00,
2013-03-13 18:34:00,28.1,20.9,30.07,NW,306,12.7,12.7,74,0.00,CLR,,0.05,WeatherDisplay:10.37,2013-03-13 22:34:00,
2013-03-13 18:39:00,28.2,21.0,30.08,NW,309,20.7,20.7,74,0.00,CLR,,0.05,WeatherDisplay:10.37,2013-03-13 22:39:00,
2013-03-13 18:44:00,28.2,20.7,30.08,WSW,252,21.0,21.0,73,0.00,CLR,,0.05,WeatherDisplay:10.37,2013-03-13 22:44:00,
2013-03-13 18:49:00,28.2,20.7,30.08,WNW,295,8.0,8.0,73,0.00,CLR,,0.05,WeatherDisplay:10.37,2013-03-13 22:49:00,
2013-03-13 18:54:00,28.3,20.1,30.08,NNW,344,11.5,11.5,71,0.00,CLR,,0.05,WeatherDisplay:10.37,2013-03-13 22:54:00,
2013-03-13 18:59:00,28.3,19.4,30.08,WNW,290,8.0,8.0,69,0.00,CLR,,0.05,WeatherDisplay:10.37,2013-03-13 22:59:00,
2013-03-13 19:04:00,28.4,19.5,30.08,WNW,299,11.5,11.5,69,0.00,CLR,,0.05,WeatherDisplay:10.37,2013-03-13 23:04:00,
2013-03-13 19:09:00,28.4,19.2,30.08,WSW,254,12.7,12.7,68,0.00,CLR,,0.05,WeatherDisplay:10.37,2013-03-13 23:09:00,
2013-03-13 19:14:00,28.4,19.2,30.09,NW,325,4.6,4.6,68,0.00,CLR,,0.05,WeatherDisplay:10.37,2013-03-13 23:14:00,
2013-03-13 19:19:00,28.4,18.8,30.09,WNW,287,5.0,5.0,67,0.00,CLR,,0.05,WeatherDisplay:10.37,2013-03-13 23:19:00,
2013-03-13 19:24:00,28.3,18.7,30.09,NW,308,9.0,9.0,67,0.00,CLR,,0.05,WeatherDisplay:10.37,2013-03-13 23:24:00,
2013-03-13 19:29:00,28.3,18.7,30.10,WNW,295,8.1,8.1,67,0.00,CLR,,0.05,WeatherDisplay:10.37,2013-03-13 23:29:00,
2013-03-13 19:34:00,28.3,19.1,30.09,West,275,16.1,16.1,68,0.00,CLR,,0.05,WeatherDisplay:10.37,2013-03-13 23:34:00,
2013-03-13 19:39:00,28.4,18.8,30.10,West,263,13.0,13.0,67,0.00,CLR,,0.05,WeatherDisplay:10.37,2013-03-13 23:39:00,
2013-03-13 19:44:00,28.4,18.8,30.10,WNW,294,17.3,17.3,67,0.00,CLR,,0.05,WeatherDisplay:10.37,2013-03-13 23:44:00,
2013-03-13 19:49:00,28.4,18.5,30.10,WSW,252,8.1,8.1,66,0.00,CLR,,0.05,WeatherDisplay:10.37,2013-03-13 23:49:00,
2013-03-13 19:54:00,28.3,18.4,30.10,WNW,300,12.0,12.0,66,0.00,CLR,,0.05,WeatherDisplay:10.37,2013-03-13 23:54:00,
2013-03-13 19:59:00,28.2,18.3,30.11,West,280,13.8,13.8,66,0.00,CLR,,0.05,WeatherDisplay:10.37,2013-03-13 23:59:00,
2013-03-13 20:04:00,28.1,18.2,30.11,WSW,250,14.0,14.0,66,0.00,CLR,,0.05,WeatherDisplay:10.37,2013-03-14 00:04:00,
2013-03-13 20:10:00,28.1,18.5,30.11,WNW,303,15.0,15.0,67,0.00,CLR,,0.05,WeatherDisplay:10.37,2013-03-14 00:10:00,
2013-03-13 20:15:00,27.9,18.4,30.11,West,269,16.1,16.1,67,0.00,CLR,,0.05,WeatherDisplay:10.37,2013-03-14 00:15:00,
2013-03-13 20:20:00,27.9,18.4,30.11,NW,317,14.0,14.0,67,0.00,CLR,,0.05,WeatherDisplay:10.37,2013-03-14 00:20:00,
2013-03-13 20:25:00,27.9,18.4,30.11,WNW,291,6.0,6.0,67,0.00,CLR,,0.05,WeatherDisplay:10.37,2013-03-14 00:25:00,
2013-03-13 20:30:00,27.9,18.4,30.11,WNW,287,9.0,9.0,67,0.00,CLR,,0.05,WeatherDisplay:10.37,2013-03-14 00:30:00,
2013-03-13 20:35:00,27.8,18.3,30.12,NW,316,7.0,7.0,67,0.00,CLR,,0.05,WeatherDisplay:10.37,2013-03-14 00:35:00,
2013-03-13 20:40:00,27.8,18.3,30.12,WNW,286,4.6,4.6,67,0.00,CLR,,0.05,WeatherDisplay:10.37,2013-03-14 00:40:00,
2013-03-13 20:45:00,27.8,18.6,30.12,NNW,328,7.0,7.0,68,0.00,CLR,,0.05,WeatherDisplay:10.37,2013-03-14 00:45:00,
2013-03-13 20:50:00,27.8,18.6,30.12,WSW,244,16.0,16.0,68,0.00,CLR,,0.05,WeatherDisplay:10.37,2013-03-14 00:50:00,
2013-03-13 20:55:00,27.8,18.6,30.12,NW,313,10.4,10.4,68,0.00,CLR,,0.05,WeatherDisplay:10.37,2013-03-14 00:55:00,
2013-03-13 21:00:00,27.7,18.8,30.12,WSW,257,14.0,14.0,69,0.00,CLR,,0.05,WeatherDisplay:10.37,2013-03-14 01:00:00,
2013-03-13 21:05:00,27.7,18.8,30.12,West,267,13.8,13.8,69,0.00,CLR,,0.05,WeatherDisplay:10.37,2013-03-14 01:05:00,
2013-03-13 21:10:00,27.7,18.5,30.12,WNW,300,11.5,11.5,68,0.00,CLR,,0.05,WeatherDisplay:10.37,2013-03-14 01:10:00,
2013-03-13 21:15:00,27.7,18.5,30.12,WNW,283,11.5,11.5,68,0.00,CLR,,0.05,WeatherDisplay:10.37,2013-03-14 01:15:00,
2013-03-13 21:20:00,27.6,18.1,30.12,WNW,284,12.0,12.0,67,0.00,CLR,,0.05,WeatherDisplay:10.37,2013-03-14 01:20:00,
2013-03-13 21:25:00,27.6,18.1,30.12,NW,309,13.8,13.8,67,0.00,CLR,,0.05,WeatherDisplay:10.37,2013-03-14 01:25:00,
2013-03-13 21:30:00,27.5,18.0,30.12,NNW,343,12.0,12.0,67,0.00,CLR,,0.05,WeatherDisplay:10.37,2013-03-14 01:30:00,
2013-03-13 21:35:00,27.5,18.3,30.12,WNW,299,17.0,17.0,68,0.00,CLR,,0.05,WeatherDisplay:10.37,2013-03-14 01:35:00,
2013-03-13 21:40:00,27.4,18.2,30.12,NW,310,8.1,8.1,68,0.00,CLR,,0.05,WeatherDisplay:10.37,2013-03-14 01:40:00,
2013-03-13 21:45:00,27.3,18.1,30.12,NW,310,13.0,13.0,68,0.00,CLR,,0.05,WeatherDisplay:10.37,2013-03-14 01:45:00,
2013-03-13 21:50:00,27.4,18.2,30.13,NW,310,10.4,10.4,68,0.00,CLR,,0.05,WeatherDisplay:10.37,2013-03-14 01:50:00,
2013-03-13 21:55:00,27.3,18.1,30.12,NW,311,8.1,8.1,68,0.00,CLR,,0.05,WeatherDisplay:10.37,2013-03-14 01:55:00,
2013-03-13 22:00:00,27.4,18.2,30.13,West,277,11.0,11.0,68,0.00,CLR,,0.05,WeatherDisplay:10.37,2013-03-14 02:00:00,
2013-03-13 22:05:00,27.4,18.2,30.13,NNW,337,6.9,6.9,68,0.00,CLR,,0.05,WeatherDisplay:10.37,2013-03-14 02:05:00,
2013-03-13 22:10:00,27.2,18.4,30.13,NW,307,4.6,4.6,69,0.00,CLR,,0.05,WeatherDisplay:10.37,2013-03-14 02:10:00,
2013-03-13 22:15:00,27.2,18.4,30.13,NW,319,12.0,12.0,69,0.00,CLR,,0.05,WeatherDisplay:10.37,2013-03-14 02:15:00,
2013-03-13 22:20:00,27.1,18.6,30.13,NW,326,8.0,8.0,70,0.00,CLR,,0.05,WeatherDisplay:10.37,2013-03-14 02:20:00,
2013-03-13 22:25:00,27.1,18.6,30.14,NNW,331,8.1,8.1,70,0.00,CLR,,0.05,WeatherDisplay:10.37,2013-03-14 02:25:00,
2013-03-13 22:30:00,27.1,18.9,30.14,West,271,8.1,8.1,71,0.00,CLR,,0.05,WeatherDisplay:10.37,2013-03-14 02:30:00,
2013-03-13 22:35:00,26.9,19.1,30.14,NW,306,10.4,10.4,72,0.00,CLR,,0.05,WeatherDisplay:10.37,2013-03-14 02:35:00,
2013-03-13 22:40:00,26.8,19.3,30.14,WNW,291,10.4,10.4,73,0.00,CLR,,0.05,WeatherDisplay:10.37,2013-03-14 02:40:00,
2013-03-13 22:45:00,26.8,19.3,30.14,West,264,14.0,14.0,73,0.00,CLR,,0.05,WeatherDisplay:10.37,2013-03-14 02:45:00,
2013-03-13 22:50:00,26.8,19.3,30.14,WNW,296,12.0,12.0,73,0.00,CLR,,0.05,WeatherDisplay:10.37,2013-03-14 02:50:00,
2013-03-13 22:55:00,26.6,19.1,30.14,WNW,302,11.0,11.0,73,0.00,CLR,,0.05,WeatherDisplay:10.37,2013-03-14 02:55:00,
2013-03-13 23:00:00,26.6,19.1,30.15,NW,317,16.1,16.1,73,0.00,CLR,,0.05,WeatherDisplay:10.37,2013-03-14 03:00:00,
2013-03-13 23:05:00,26.6,18.8,30.14,NW,309,26.5,26.5,72,0.00,CLR,,0.05,WeatherDisplay:10.37,2013-03-14 03:05:00,
2013-03-13 23:10:00,26.6,18.5,30.15,WSW,243,11.0,11.0,71,0.00,CLR,,0.05,WeatherDisplay:10.37,2013-03-14 03:10:00,
2013-03-13 23:15:00,26.7,18.6,30.15,NW,313,11.5,11.5,71,0.00,CLR,,0.05,WeatherDisplay:10.37,2013-03-14 03:15:00,
2013-03-13 23:20:00,26.7,18.6,30.15,WNW,286,10.4,10.4,71,0.00,CLR,,0.05,WeatherDisplay:10.37,2013-03-14 03:20:00,
2013-03-13 23:25:00,26.7,18.6,30.15,West,265,10.4,10.4,71,0.00,CLR,,0.05,WeatherDisplay:10.37,2013-03-14 03:25:00,
2013-03-13 23:30:00,26.7,18.6,30.15,WNW,296,10.4,10.4,71,0.00,CLR,,0.05,WeatherDisplay:10.37,2013-03-14 03:30:00,
2013-03-13 23:35:00,26.7,18.6,30.15,WNW,294,9.2,9.2,71,0.00,CLR,,0.05,WeatherDisplay:10.37,2013-03-14 03:35:00,
2013-03-13 23:40:00,26.7,18.6,30.15,NW,318,9.2,9.2,71,0.00,CLR,,0.05,WeatherDisplay:10.37,2013-03-14 03:40:00,
2013-03-13 23:45:00,26.7,18.2,30.15,West,259,11.5,11.5,70,0.00,CLR,,0.05,WeatherDisplay:10.37,2013-03-14 03:45:00,
2013-03-13 23:50:00,26.8,18.3,30.15,WNW,286,15.0,15.0,70,0.00,CLR,,0.05,WeatherDisplay:10.37,2013-03-14 03:50:00,
2013-03-13 23:55:00,26.8,18.3,30.15,West,269,18.4,18.4,70,0.00,CLR,,0.05,WeatherDisplay:10.37,2013-03-14 03:55:00,